DCM6021 07FA-KPIE

Flight info

Callsign DCM6021
Flight time 0h 32m
Altitude 32000
Route DCT CEXAN DCT
Aircraft C750/M-SBDE3FGHRWXY/S

Departure

Time 2026-04-20 02:46
Airport Ocean Reef Club Airport (07FA)

Arrival

Time 2026-04-20 03:19
Airport St. Petersburg Clearwater International Airport (KPIE)
Time Latitude Longitude Altitude Speed Heading
2026-04-20 02:46 25.52691 -80.43766 12624 ft 348 kts 313°
2026-04-20 02:46 25.54396 -80.45718 13379 ft 352 kts 313°
2026-04-20 02:47 25.56113 -80.47678 14120 ft 356 kts 313°
2026-04-20 02:47 25.57831 -80.49634 14828 ft 359 kts 313°
2026-04-20 02:47 25.59580 -80.51644 15530 ft 363 kts 312°
2026-04-20 02:47 25.61352 -80.53672 16240 ft 367 kts 313°
2026-04-20 02:48 25.63141 -80.55710 16943 ft 371 kts 312°
2026-04-20 02:48 25.64945 -80.57778 17641 ft 375 kts 312°
2026-04-20 02:48 25.66751 -80.59853 18359 ft 378 kts 312°
2026-04-20 02:48 25.68595 -80.61969 19072 ft 382 kts 312°
2026-04-20 02:49 25.70447 -80.64092 19846 ft 384 kts 311°
2026-04-20 02:49 25.72299 -80.66216 20576 ft 388 kts 311°
2026-04-20 02:49 25.74183 -80.68380 21286 ft 392 kts 311°
2026-04-20 02:49 25.76087 -80.70569 21999 ft 395 kts 311°
2026-04-20 02:50 25.78009 -80.72777 22695 ft 398 kts 311°
2026-04-20 02:50 25.79921 -80.74975 23382 ft 402 kts 311°
2026-04-20 02:50 25.81871 -80.77219 24055 ft 405 kts 311°
2026-04-20 02:50 25.83835 -80.79480 24709 ft 408 kts 310°
2026-04-20 02:51 25.85813 -80.81758 25342 ft 411 kts 310°
2026-04-20 02:51 25.87808 -80.84058 25944 ft 415 kts 310°
2026-04-20 02:51 25.89826 -80.86383 26576 ft 417 kts 310°
2026-04-20 02:51 25.91833 -80.88695 27078 ft 418 kts 310°
2026-04-20 02:52 25.93867 -80.91048 27088 ft 435 kts 310°
2026-04-20 02:52 25.96004 -80.93521 27092 ft 450 kts 310°
2026-04-20 02:52 25.98194 -80.96049 27092 ft 457 kts 310°
2026-04-20 02:52 26.00426 -80.98622 27103 ft 462 kts 310°
2026-04-20 02:53 26.02649 -81.01192 27098 ft 461 kts 310°
2026-04-20 02:53 26.04878 -81.03776 27100 ft 463 kts 310°
2026-04-20 02:53 26.07113 -81.06366 27104 ft 464 kts 310°
2026-04-20 02:53 26.09323 -81.08923 27101 ft 464 kts 310°
2026-04-20 02:54 26.11557 -81.11510 27097 ft 464 kts 310°
2026-04-20 02:54 26.13795 -81.14108 27101 ft 464 kts 310°
2026-04-20 02:54 26.16026 -81.16702 27101 ft 464 kts 310°
2026-04-20 02:54 26.18262 -81.19298 27096 ft 464 kts 310°
2026-04-20 02:55 26.20500 -81.21897 27099 ft 463 kts 310°
2026-04-20 02:55 26.22733 -81.24493 27102 ft 463 kts 310°
2026-04-20 02:55 26.24964 -81.27090 27098 ft 464 kts 310°
2026-04-20 02:55 26.27170 -81.29660 27102 ft 464 kts 310°
2026-04-20 02:56 26.29407 -81.32264 27095 ft 463 kts 310°
2026-04-20 02:56 26.31640 -81.34866 27097 ft 463 kts 310°
2026-04-20 02:56 26.33871 -81.37470 27101 ft 463 kts 310°
2026-04-20 02:56 26.36072 -81.40039 27101 ft 463 kts 310°
2026-04-20 02:57 26.38302 -81.42642 27095 ft 463 kts 310°
2026-04-20 02:57 26.40531 -81.45247 27093 ft 463 kts 310°
2026-04-20 02:57 26.42764 -81.47856 27098 ft 463 kts 310°
2026-04-20 02:57 26.44994 -81.50464 27098 ft 464 kts 310°
2026-04-20 02:58 26.47201 -81.53048 27093 ft 464 kts 310°
2026-04-20 02:58 26.49429 -81.55658 27102 ft 464 kts 310°
2026-04-20 02:58 26.51658 -81.58270 27100 ft 464 kts 310°
2026-04-20 02:58 26.53893 -81.60888 27095 ft 464 kts 310°
2026-04-20 02:59 26.56122 -81.63504 27099 ft 464 kts 310°
2026-04-20 02:59 26.58317 -81.66083 27101 ft 464 kts 310°
2026-04-20 02:59 26.60546 -81.68702 27099 ft 464 kts 310°
2026-04-20 02:59 26.62771 -81.71317 27102 ft 464 kts 310°
2026-04-20 03:00 26.64948 -81.73871 26715 ft 438 kts 310°
2026-04-20 03:00 26.66996 -81.76272 26153 ft 417 kts 310°
2026-04-20 03:00 26.68980 -81.78618 25605 ft 413 kts 310°
2026-04-20 03:00 26.70949 -81.80947 25062 ft 410 kts 310°
2026-04-20 03:01 26.72882 -81.83223 24528 ft 408 kts 310°
2026-04-20 03:01 26.74831 -81.85515 23989 ft 404 kts 310°
2026-04-20 03:01 26.76756 -81.87789 23458 ft 401 kts 310°
2026-04-20 03:01 26.78666 -81.90047 22934 ft 398 kts 310°
2026-04-20 03:02 26.80570 -81.92297 22406 ft 396 kts 310°
2026-04-20 03:02 26.82460 -81.94528 21882 ft 394 kts 310°
2026-04-20 03:02 26.84337 -81.96745 21364 ft 391 kts 310°
2026-04-20 03:02 26.86200 -81.98952 20842 ft 388 kts 310°
2026-04-20 03:03 26.88053 -82.01143 20331 ft 386 kts 310°
2026-04-20 03:03 26.89894 -82.03321 19821 ft 383 kts 310°
2026-04-20 03:03 26.91719 -82.05488 19311 ft 382 kts 310°
2026-04-20 03:03 26.93512 -82.07607 18821 ft 377 kts 311°
2026-04-20 03:04 26.95421 -82.09635 18313 ft 376 kts 315°
2026-04-20 03:04 26.97373 -82.11612 17819 ft 375 kts 315°
2026-04-20 03:04 26.99295 -82.13578 17317 ft 373 kts 314°
2026-04-20 03:04 27.01170 -82.15517 16831 ft 370 kts 314°
2026-04-20 03:05 27.03059 -82.17465 16342 ft 367 kts 315°
2026-04-20 03:05 27.04938 -82.19393 15856 ft 366 kts 315°
2026-04-20 03:05 27.06817 -82.21323 15377 ft 363 kts 315°
2026-04-20 03:05 27.08680 -82.23242 14898 ft 362 kts 315°
2026-04-20 03:06 27.10530 -82.25148 14323 ft 358 kts 315°
2026-04-20 03:06 27.12367 -82.27040 13841 ft 357 kts 315°
2026-04-20 03:06 27.14197 -82.28929 13357 ft 356 kts 316°
2026-04-20 03:06 27.15994 -82.30789 12893 ft 355 kts 316°
2026-04-20 03:07 27.17807 -82.32663 12422 ft 352 kts 316°
2026-04-20 03:07 27.19609 -82.34519 11954 ft 351 kts 316°
2026-04-20 03:07 27.21404 -82.36370 11490 ft 350 kts 316°
2026-04-20 03:07 27.23170 -82.38196 11028 ft 334 kts 316°
2026-04-20 03:08 27.24820 -82.39904 10601 ft 312 kts 316°
2026-04-20 03:08 27.26357 -82.41494 10207 ft 296 kts 316°
2026-04-20 03:08 27.27864 -82.43053 9819 ft 291 kts 316°
2026-04-20 03:08 27.29351 -82.44594 9439 ft 290 kts 317°
2026-04-20 03:09 27.30833 -82.46129 9059 ft 289 kts 317°
2026-04-20 03:09 27.32315 -82.47663 8677 ft 288 kts 317°
2026-04-20 03:09 27.33787 -82.49190 8295 ft 287 kts 317°
2026-04-20 03:09 27.35234 -82.50690 7920 ft 285 kts 317°
2026-04-20 03:10 27.36689 -82.52199 7542 ft 282 kts 317°
2026-04-20 03:10 27.38126 -82.53691 7167 ft 281 kts 317°
2026-04-20 03:10 27.39563 -82.55184 6791 ft 280 kts 317°
2026-04-20 03:10 27.41116 -82.56457 6350 ft 277 kts 336°
2026-04-20 03:11 27.42929 -82.57049 6054 ft 273 kts 346°
2026-04-20 03:11 27.44779 -82.57586 5706 ft 273 kts 346°
2026-04-20 03:11 27.46605 -82.58143 5342 ft 270 kts 345°
2026-04-20 03:11 27.48408 -82.58697 4979 ft 266 kts 345°
2026-04-20 03:12 27.50189 -82.59234 4617 ft 263 kts 345°
2026-04-20 03:12 27.51928 -82.59757 4268 ft 260 kts 345°
2026-04-20 03:12 27.53672 -82.60285 3920 ft 257 kts 345°
2026-04-20 03:12 27.55394 -82.60807 3571 ft 254 kts 345°
2026-04-20 03:13 27.57098 -82.61323 3237 ft 251 kts 345°
2026-04-20 03:13 27.58756 -82.61825 2991 ft 246 kts 345°
2026-04-20 03:13 27.60409 -82.62325 2999 ft 246 kts 345°
2026-04-20 03:13 27.62073 -82.62827 3003 ft 246 kts 345°
2026-04-20 03:14 27.63742 -82.63335 2999 ft 249 kts 345°
2026-04-20 03:14 27.65418 -82.63843 2999 ft 249 kts 345°
2026-04-20 03:14 27.67073 -82.64347 2994 ft 248 kts 345°
2026-04-20 03:14 27.68723 -82.64943 2987 ft 249 kts 344°
2026-04-20 03:15 27.70425 -82.65325 2979 ft 249 kts 352°
2026-04-20 03:15 27.72143 -82.65589 2984 ft 249 kts 352°
2026-04-20 03:15 27.73857 -82.65875 2985 ft 248 kts 351°
2026-04-20 03:15 27.75529 -82.66162 2836 ft 236 kts 351°
2026-04-20 03:16 27.77066 -82.66434 2532 ft 214 kts 351°
2026-04-20 03:16 27.78524 -82.66685 2261 ft 210 kts 351°
2026-04-20 03:16 27.79970 -82.66935 1989 ft 210 kts 351°
2026-04-20 03:16 27.81410 -82.67185 1715 ft 205 kts 351°
2026-04-20 03:17 27.82715 -82.67411 1439 ft 175 kts 351°
2026-04-20 03:17 27.83884 -82.67612 1219 ft 162 kts 351°
2026-04-20 03:17 27.84890 -82.67785 1016 ft 133 kts 351°
2026-04-20 03:17 27.85777 -82.67937 849 ft 126 kts 351°
2026-04-20 03:18 27.86630 -82.68084 694 ft 124 kts 351°
2026-04-20 03:18 27.87478 -82.68231 549 ft 120 kts 351°
2026-04-20 03:18 27.88307 -82.68374 414 ft 121 kts 353°
2026-04-20 03:18 27.89145 -82.68531 259 ft 124 kts 359°
2026-04-20 03:19 27.90009 -82.68665 41 ft 123 kts 351°
2026-04-20 03:19 27.90763 -82.68797 21 ft 91 kts 351°
2026-04-20 03:19 27.91133 -82.68859 18 ft 36 kts 352°
2026-04-20 03:19 27.91233 -82.68940 18 ft 14 kts 261°
2026-04-20 03:20 27.91205 -82.69028 21 ft 10 kts 193°
2026-04-20 03:20 27.91115 -82.69015 22 ft 19 kts 173°
2026-04-20 03:20 27.90947 -82.68985 20 ft 27 kts 171°
2026-04-20 03:20 27.90767 -82.68953 22 ft 26 kts 171°
2026-04-20 03:21 27.90593 -82.68924 21 ft 25 kts 172°
2026-04-20 03:21 27.90471 -82.68918 21 ft 12 kts 225°
2026-04-20 03:21 27.90496 -82.68973 22 ft 8 kts 336°
2026-04-20 03:21 27.90501 -82.69007 21 ft 5 kts 200°
2026-04-20 03:22 27.90481 -82.69005 23 ft 2 kts 171°
2026-04-20 03:22 27.90480 -82.69005 21 ft 0 kts 171°